�������l�o���
Date,Time,MP-1(��Sv/h),MP-2(��Sv/h),MP-3(��Sv/h),MP-4(��Sv/h),MP-5(��Sv/h),MP-6(��Sv/h),MP-7(��Sv/h),MP-8(��Sv/h),����,����(m/s),���J
2019/08/21,00:00,0.756,1.064,0.745,1.332,0.973,0.427,0.750,0.708,�k��,5.0,��
2019/08/21,00:10,0.757,1.062,0.747,1.332,0.973,0.428,0.748,0.706,�k�k��,3.6,��
2019/08/21,00:20,0.757,1.063,0.747,1.331,0.973,0.427,0.750,0.707,�k��,3.3,��
2019/08/21,00:30,0.757,1.063,0.743,1.332,0.972,0.428,0.747,0.707,�k��,2.0,��
2019/08/21,00:40,0.758,1.062,0.747,1.332,0.973,0.427,0.748,0.708,�k�k��,2.6,��
2019/08/21,00:50,0.757,1.061,0.745,1.334,0.971,0.428,0.748,0.707,�k�k��,3.5,��
2019/08/21,01:00,0.758,1.063,0.746,1.332,0.972,0.427,0.750,0.707,�k,5.2,��
2019/08/21,01:10,0.759,1.061,0.746,1.333,0.974,0.429,0.750,0.705,�k�k��,6.0,��
2019/08/21,01:20,0.757,1.062,0.745,1.332,0.972,0.428,0.749,0.707,�k�k��,4.4,��
2019/08/21,01:30,0.757,1.063,0.746,1.332,0.973,0.430,0.749,0.706,�k�k��,3.2,��
2019/08/21,01:40,0.758,1.064,0.744,1.333,0.970,0.428,0.749,0.707,�k�k��,2.9,��
2019/08/21,01:50,0.759,1.064,0.745,1.334,0.973,0.429,0.749,0.707,�k�k��,1.7,��
2019/08/21,02:00,0.760,1.063,0.744,1.334,0.976,0.428,0.749,0.706,�k,2.2,��
2019/08/21,02:10,0.758,1.063,0.745,1.334,0.972,0.426,0.750,0.707,�k,2.6,��
2019/08/21,02:20,0.756,1.064,0.745,1.333,0.974,0.428,0.750,0.707,�k�k��,1.9,��
2019/08/21,02:30,0.757,1.063,0.744,1.334,0.974,0.430,0.750,0.707,�k�k��,2.0,��
2019/08/21,02:40,0.757,1.061,0.745,1.331,0.971,0.428,0.751,0.706,�k��,1.4,��
2019/08/21,02:50,0.758,1.063,0.745,1.334,0.973,0.429,0.750,0.705,�k,1.9,��
2019/08/21,03:00,0.758,1.062,0.745,1.331,0.972,0.429,0.749,0.707,�k,1.1,��
2019/08/21,03:10,0.756,1.063,0.743,1.332,0.974,0.428,0.750,0.707,�k�k��,0.8,��
2019/08/21,03:20,0.759,1.063,0.744,1.333,0.973,0.428,0.748,0.705,��,0.8,��
2019/08/21,03:30,0.756,1.062,0.742,1.330,0.971,0.428,0.750,0.706,���쐼,0.8,��
2019/08/21,03:40,0.757,1.063,0.744,1.332,0.971,0.429,0.751,0.707,���쐼,0.8,��
2019/08/21,03:50,0.756,1.062,0.744,1.331,0.973,0.427,0.751,0.706,�쓌,1.1,��
2019/08/21,04:00,0.758,1.061,0.744,1.331,0.974,0.428,0.750,0.706,�쓌,1.2,��
2019/08/21,04:10,0.760,1.061,0.745,1.333,0.971,0.428,0.751,0.706,��쓌,1.1,��
2019/08/21,04:20,0.759,1.061,0.743,1.335,0.975,0.428,0.752,0.707,�쓌,1.4,��
2019/08/21,04:30,0.757,1.062,0.742,1.333,0.974,0.428,0.749,0.707,���쓌,1.5,��
2019/08/21,04:40,0.758,1.061,0.743,1.334,0.973,0.427,0.750,0.708,��,1.7,��
2019/08/21,04:50,0.757,1.060,0.745,1.331,0.971,0.430,0.749,0.707,���k��,2.0,��
2019/08/21,05:00,0.757,1.059,0.744,1.333,0.973,0.429,0.749,0.708,���k��,1.2,��
2019/08/21,05:10,0.758,1.062,0.746,1.331,0.973,0.429,0.749,0.706,���k��,1.9,��
2019/08/21,05:20,0.758,1.062,0.743,1.332,0.972,0.428,0.752,0.707,�k��,1.7,��
2019/08/21,05:30,0.758,1.060,0.743,1.331,0.974,0.430,0.750,0.707,�k�k��,0.9,��
2019/08/21,05:40,0.757,1.060,0.743,1.331,0.973,0.428,0.751,0.706,�k��,1.4,��
2019/08/21,05:50,0.758,1.060,0.743,1.334,0.973,0.429,0.750,0.706,�k��,1.2,��
2019/08/21,06:00,0.758,1.061,0.743,1.333,0.974,0.428,0.751,0.707,�k,1.5,��
2019/08/21,06:10,0.757,1.059,0.744,1.333,0.973,0.428,0.750,0.708,�k�k��,2.0,��
2019/08/21,06:20,0.760,1.062,0.745,1.334,0.972,0.429,0.749,0.706,�k,1.9,��
2019/08/21,06:30,0.759,1.063,0.744,1.331,0.973,0.428,0.749,0.707,�k�k��,2.2,��
2019/08/21,06:40,0.759,1.062,0.745,1.333,0.973,0.429,0.750,0.706,�k��,2.3,��
2019/08/21,06:50,0.759,1.064,0.744,1.333,0.974,0.428,0.750,0.708,�k�k��,1.5,��
2019/08/21,07:00,0.760,1.065,0.743,1.332,0.973,0.428,0.751,0.708,�k,1.4,��
2019/08/21,07:10,0.757,1.064,0.745,1.332,0.971,0.429,0.752,0.707,�k�k��,1.7,��
2019/08/21,07:20,0.758,1.062,0.742,1.334,0.972,0.430,0.749,0.708,�k�k��,1.4,��
2019/08/21,07:30,0.755,1.063,0.744,1.330,0.973,0.428,0.750,0.705,�k��,0.9,��
2019/08/21,07:40,0.759,1.062,0.743,1.334,0.971,0.426,0.749,0.707,�k�k��,2.3,��
2019/08/21,07:50,0.760,1.060,0.744,1.335,0.972,0.427,0.750,0.706,�k��,1.9,��
2019/08/21,08:00,0.760,1.062,0.746,1.335,0.974,0.426,0.749,0.707,�k�k��,1.2,��
2019/08/21,08:10,0.759,1.063,0.744,1.332,0.974,0.428,0.750,0.704,�k��,1.5,��
2019/08/21,08:20,0.761,1.063,0.742,1.334,0.974,0.425,0.749,0.704,�k��,1.5,��
2019/08/21,08:30,0.758,1.061,0.742,1.334,0.975,0.426,0.750,0.704,��,1.2,��
2019/08/21,08:40,0.757,1.060,0.743,1.334,0.973,0.425,0.747,0.703,��,0.9,��
2019/08/21,08:50,0.758,1.060,0.742,1.333,0.973,0.426,0.751,0.704,���쐼,0.8,��
2019/08/21,09:00,0.760,1.060,0.746,1.332,0.975,0.425,0.748,0.705,-,CALM,��
2019/08/21,09:10,0.758,1.060,0.743,1.333,0.975,0.425,0.750,0.704,��,1.4,�L
2019/08/21,09:20,0.759,1.062,0.744,1.334,0.978,0.426,0.749,0.705,���쓌,0.9,�L
2019/08/21,09:30,0.759,1.062,0.746,1.334,0.976,0.425,0.750,0.704,���쓌,1.2,��
2019/08/21,09:40,0.761,1.062,0.742,1.335,0.976,0.426,0.748,0.705,��쓌,1.7,��
2019/08/21,09:50,0.761,1.061,0.743,1.333,0.977,0.428,0.750,0.706,��쓌,1.2,��
2019/08/21,10:00,0.762,1.063,0.743,1.336,0.977,0.428,0.751,0.705,���k��,0.8,��
2019/08/21,10:10,0.760,1.065,0.745,1.333,0.977,0.427,0.750,0.707,�쓌,1.9,��
2019/08/21,10:20,0.762,1.065,0.745,1.336,0.979,0.428,0.750,0.705,���쓌,2.0,��
2019/08/21,10:30,0.762,1.060,0.745,1.337,0.976,0.427,0.749,0.705,���쓌,2.6,��
2019/08/21,10:40,0.763,1.061,0.746,1.334,0.979,0.428,0.750,0.705,��,2.3,��
2019/08/21,10:50,0.763,1.063,0.744,1.336,0.977,0.427,0.751,0.706,���쓌,2.9,��
2019/08/21,11:00,0.761,1.064,0.747,1.338,0.981,0.427,0.751,0.705,��,2.6,��
2019/08/21,11:10,0.761,1.066,0.745,1.336,0.980,0.425,0.750,0.706,���쓌,2.6,��
2019/08/21,11:20,0.760,1.069,0.744,1.337,0.979,0.424,0.749,0.706,���k��,2.2,��
2019/08/21,11:30,0.762,1.066,0.746,1.337,0.977,0.426,0.750,0.706,��,2.0,��
2019/08/21,11:40,0.762,1.067,0.747,1.337,0.982,0.426,0.751,0.707,���쓌,2.3,��
2019/08/21,11:50,0.761,1.069,0.744,1.337,0.980,0.426,0.749,0.705,��,2.3,��
2019/08/21,12:00,0.760,1.068,0.746,1.336,0.980,0.427,0.750,0.707,���쓌,2.3,��
2019/08/21,12:10,0.759,1.069,0.744,1.341,0.978,0.426,0.751,0.707,���쓌,1.9,�L
2019/08/21,12:20,0.762,1.069,0.746,1.338,0.978,0.425,0.750,0.706,���쓌,2.5,�L
2019/08/21,12:30,0.763,1.065,0.747,1.339,0.979,0.426,0.751,0.705,��,1.9,�L
2019/08/21,12:40,0.764,1.069,0.748,1.338,0.978,0.426,0.751,0.706,���쓌,1.4,��
2019/08/21,12:50,0.762,1.066,0.747,1.339,0.980,0.426,0.750,0.706,��,1.5,��
2019/08/21,13:00,0.762,1.067,0.747,1.341,0.981,0.427,0.749,0.705,��,0.9,��
2019/08/21,13:10,0.764,1.067,0.749,1.337,0.981,0.426,0.751,0.705,�쓌,1.4,��
2019/08/21,13:20,0.764,1.070,0.747,1.337,0.978,0.426,0.749,0.706,�쓌,1.7,�L
2019/08/21,13:30,0.763,1.067,0.746,1.337,0.980,0.425,0.749,0.705,�쓌,1.9,�L
2019/08/21,13:40,0.762,1.066,0.750,1.339,0.979,0.427,0.751,0.706,���쓌,1.7,�L
2019/08/21,13:50,0.762,1.067,0.749,1.341,0.981,0.425,0.750,0.707,��,1.7,�L
2019/08/21,14:00,0.764,1.069,0.747,1.339,0.980,0.426,0.750,0.706,��,1.9,��
2019/08/21,14:10,0.766,1.071,0.748,1.341,0.982,0.425,0.749,0.705,�쓌,2.9,��
2019/08/21,14:20,0.764,1.068,0.748,1.339,0.983,0.424,0.751,0.705,�쓌,2.6,��
2019/08/21,14:30,0.765,1.069,0.748,1.341,0.983,0.426,0.751,0.706,��,2.3,��
2019/08/21,14:40,0.765,1.071,0.748,1.337,0.982,0.426,0.749,0.706,��,2.2,��
2019/08/21,14:50,0.764,1.072,0.750,1.340,0.984,0.428,0.752,0.706,��,2.6,��
2019/08/21,15:00,0.765,1.071,0.748,1.340,0.984,0.426,0.749,0.707,��,1.9,��
2019/08/21,15:10,0.765,1.071,0.748,1.340,0.982,0.428,0.752,0.706,��,2.0,�L
2019/08/21,15:20,0.765,1.070,0.747,1.341,0.982,0.426,0.751,0.705,���k��,2.2,��
2019/08/21,15:30,0.764,1.069,0.746,1.340,0.982,0.427,0.749,0.707,���k��,1.7,��
2019/08/21,15:40,0.766,1.072,0.745,1.339,0.985,0.425,0.752,0.708,��,2.3,��
2019/08/21,15:50,0.765,1.069,0.750,1.338,0.985,0.425,0.751,0.706,��,1.9,��
2019/08/21,16:00,0.765,1.072,0.749,1.342,0.984,0.426,0.752,0.709,��,1.7,��
2019/08/21,16:10,0.764,1.074,0.749,1.340,0.983,0.427,0.750,0.706,��,1.7,��
2019/08/21,16:20,0.766,1.074,0.748,1.339,0.984,0.426,0.750,0.707,��,2.0,��
2019/08/21,16:30,0.766,1.078,0.749,1.341,0.981,0.427,0.752,0.708,��,1.9,��
2019/08/21,16:40,0.765,1.075,0.747,1.340,0.983,0.427,0.753,0.709,���쓌,1.4,��
2019/08/21,16:50,0.764,1.075,0.747,1.339,0.984,0.428,0.752,0.710,���쓌,1.7,��
2019/08/21,17:00,0.764,1.076,0.748,1.341,0.983,0.426,0.752,0.709,���쓌,1.2,��
2019/08/21,17:10,0.765,1.073,0.752,1.339,0.985,0.428,0.753,0.709,��쓌,1.5,��
2019/08/21,17:20,0.765,1.074,0.750,1.341,0.983,0.428,0.752,0.709,��,1.4,��
2019/08/21,17:30,0.765,1.076,0.750,1.340,0.985,0.427,0.753,0.710,�쓌,1.7,��
2019/08/21,17:40,0.764,1.074,0.749,1.339,0.983,0.426,0.752,0.711,���쓌,1.7,��
2019/08/21,17:50,0.763,1.075,0.749,1.339,0.985,0.428,0.752,0.709,�쓌,1.2,��
2019/08/21,18:00,0.764,1.074,0.749,1.342,0.984,0.429,0.754,0.709,���쓌,1.5,��
2019/08/21,18:10,0.762,1.076,0.749,1.343,0.983,0.428,0.753,0.709,�쓌,1.7,��
2019/08/21,18:20,0.763,1.074,0.750,1.341,0.983,0.427,0.752,0.708,�쓌,1.7,��
2019/08/21,18:30,0.765,1.075,0.752,1.343,0.985,0.427,0.752,0.710,��쓌,1.7,��
2019/08/21,18:40,0.764,1.074,0.749,1.342,0.984,0.428,0.753,0.709,��,1.9,��
2019/08/21,18:50,0.765,1.076,0.751,1.342,0.984,0.427,0.754,0.709,�쐼,1.2,��
2019/08/21,19:00,0.763,1.076,0.750,1.341,0.984,0.429,0.752,0.711,��쐼,1.7,�L
2019/08/21,19:10,0.764,1.074,0.750,1.341,0.984,0.429,0.753,0.709,��,2.6,�L
2019/08/21,19:20,0.765,1.075,0.750,1.337,0.985,0.429,0.753,0.708,��,1.9,�L
2019/08/21,19:30,0.764,1.073,0.751,1.339,0.983,0.428,0.750,0.710,���쐼,3.1,�L
2019/08/21,19:40,0.763,1.071,0.751,1.341,0.981,0.430,0.751,0.709,-,CALM,�L
2019/08/21,19:50,0.762,1.067,0.748,1.337,0.980,0.429,0.749,0.708,��쐼,1.2,�L
2019/08/21,20:00,0.759,1.064,0.748,1.336,0.976,0.428,0.748,0.706,��쓌,1.1,�L
2019/08/21,20:10,0.760,1.061,0.748,1.333,0.973,0.427,0.747,0.705,��쓌,1.2,�L
2019/08/21,20:20,0.759,1.060,0.746,1.335,0.971,0.427,0.748,0.707,��쐼,1.2,�L
2019/08/21,20:30,0.757,1.059,0.746,1.334,0.969,0.427,0.744,0.703,��쐼,1.7,�L
2019/08/21,20:40,0.757,1.054,0.744,1.329,0.965,0.426,0.745,0.702,��쓌,10.0,�L
2019/08/21,20:50,0.753,1.049,0.739,1.319,0.957,0.423,0.744,0.699,-,CALM,�L
2019/08/21,21:00,0.750,1.042,0.737,1.311,0.954,0.424,0.742,0.701,�쓌,1.7,�L
2019/08/21,21:10,0.749,1.041,0.736,1.314,0.953,0.423,0.740,0.698,��쐼,1.4,�L
2019/08/21,21:20,0.750,1.042,0.737,1.310,0.955,0.423,0.740,0.699,��쐼,2.3,�L
2019/08/21,21:30,0.749,1.038,0.736,1.307,0.952,0.425,0.740,0.698,��쓌,2.3,�L
2019/08/21,21:40,0.748,1.035,0.738,1.306,0.953,0.425,0.739,0.698,��,3.2,�L
2019/08/21,21:50,0.747,1.036,0.737,1.301,0.952,0.423,0.737,0.697,��,3.5,�L
2019/08/21,22:00,0.745,1.032,0.734,1.301,0.948,0.425,0.737,0.697,��,2.2,�L
2019/08/21,22:10,0.745,1.030,0.732,1.295,0.946,0.424,0.738,0.696,�쓌,7.9,�L
2019/08/21,22:20,0.745,1.031,0.730,1.296,0.946,0.425,0.735,0.695,-,CALM,�L
2019/08/21,22:30,0.747,1.029,0.730,1.295,0.946,0.424,0.735,0.695,��쓌,3.6,�L
2019/08/21,22:40,0.744,1.026,0.725,1.291,0.941,0.424,0.735,0.694,���쓌,1.5,�L
2019/08/21,22:50,0.746,1.026,0.728,1.292,0.941,0.425,0.733,0.694,��쐼,2.9,�L
2019/08/21,23:00,0.744,1.024,0.726,1.285,0.938,0.423,0.733,0.695,��쐼,3.4,�L
2019/08/21,23:10,0.738,1.017,0.720,1.279,0.933,0.423,0.732,0.693,-,CALM,�L
2019/08/21,23:20,0.739,1.016,0.724,1.280,0.932,0.421,0.730,0.690,-,CALM,�L
2019/08/21,23:30,0.740,1.012,0.720,1.278,0.927,0.421,0.730,0.690,��쓌,6.1,�L
2019/08/21,23:40,0.738,1.013,0.720,1.278,0.925,0.420,0.728,0.687,�쓌,4.9,�L
2019/08/21,23:50,0.738,1.017,0.722,1.280,0.928,0.422,0.729,0.690,��쐼,3.3,�L
